| time (UTC) | temp F | wind direction | speed knots | gust knots | rain 1hr in | rain 24hr in | rain mn in | humidity % | barometer mb |
| 20260902181957 | 48 | 220 | 7.8 | 0.0 | 0.00 | 0.00 | 0.00 | 87 | |
| 20260902172159 | 48 | 250 | 4.3 | 0.0 | 0.00 | 0.00 | 0.00 | 93 | |
| 20260902162400 | 52 | 220 | 6.1 | 17.4 | 0.00 | 0.00 | 0.00 | 76 | |
| 20260902151958 | 50 | 250 | 10.4 | 0.0 | 0.00 | 0.00 | 0.00 | 87 | |
| 20260902142159 | 50 | 240 | 10.4 | 19.1 | 0.00 | 0.00 | 0.00 | 81 | |
| 20260902132159 | 52 | 230 | 12.2 | 0.0 | 0.00 | 0.00 | 0.00 | 81 | |
| 20260902121958 | 52 | 230 | 15.6 | 0.0 | 0.00 | 0.00 | 0.00 | 76 | |
| 20260902112159 | 50 | 240 | 15.6 | 26.9 | 0.00 | 0.00 | 0.00 | 76 | |
| 20260902102259 | 50 | 250 | 12.2 | 0.0 | 0.00 | 0.00 | 0.00 | 76 | |
| 20260902091959 | 48 | 240 | 15.6 | 25.2 | 0.00 | 0.00 | 0.00 | 87 | |
| 20260902082159 | 46 | 220 | 19.1 | 0.0 | 0.00 | 0.00 | 0.00 | 87 | |
| 20260902072059 | 45 | 230 | 20.9 | 0.0 | 0.00 | 0.00 | 0.00 | 99 | |
| 20260902061959 | 46 | 250 | 25.2 | 0.0 | 0.00 | 0.00 | 0.00 | 87 | |
| 20260902052141 | 46 | 220 | 22.6 | 0.0 | 0.00 | 0.00 | 0.00 | 75 | |
| 20260902042300 | 46 | 180 | 10.4 | 0.0 | 0.00 | 0.00 | 0.00 | 93 | |
| 20260902031957 | 46 | 210 | 10.4 | 0.0 | 0.00 | 0.00 | 0.00 | 93 | |
| 20260902022157 | 46 | 240 | 15.6 | 0.0 | 0.00 | 0.00 | 0.00 | 93 | |
| 20260902012158 | 46 | 210 | 12.2 | 20.9 | 0.00 | 0.00 | 0.00 | 93 | |
| 20260902001958 | 46 | 240 | 20.9 | 0.0 | 0.00 | 0.00 | 0.00 | 93 | |
| 20260901232142 | 46 | 240 | 22.6 | 0.0 | 0.00 | 0.00 | 0.00 | 93 | |
| 20260901222259 | 46 | 230 | 19.1 | 0.0 | 0.00 | 0.00 | 0.00 | 87 | |
| 20260901211958 | 46 | 230 | 17.4 | 0.0 | 0.00 | 0.00 | 0.00 | 93 | |
| 20260901202158 | 46 | 220 | 15.6 | 0.0 | 0.00 | 0.00 | 0.00 | 93 | |
| 20260901192158 | 46 | 210 | 19.1 | 28.7 | 0.00 | 0.00 | 0.00 | 99 |